When you browse on this site, cookies collect data to enhance your experience and personalize the content and advertising you see.
Visit our Privacy Policy to learn more. By continuing to use the site, you agree to this use of cookies and data.
  • In Spain
  • List of Countries
  • For 7 days
  • Water Temperature
  • Weather Map
  • Weather Widgets
  • user-avatar
    Login

    Hourly Weather Almaty

    Today, 14 December, Saturday

    Time Temperature Precipitation Wind Pressure Humidity
    00:00 +2°C° 0 mm 1 mps 684 mmHg 87%
    01:00 +2°C° 0 mm 1 mps 684 mmHg 87%
    02:00 +2°C° 0 mm 1 mps 684 mmHg 88%
    03:00 +2°C° 0.1 mm 1 mps 685 mmHg 89%
    04:00 +2°C° 0.1 mm 1 mps 685 mmHg 90%
    05:00 +2°C° 0 mm 1 mps 685 mmHg 93%
    06:00 +2°C° 0.1 mm 1 mps 685 mmHg 93%
    07:00 +2°C° 0.1 mm 1 mps 686 mmHg 94%
    08:00 +2°C° 0.1 mm 1 mps 687 mmHg 94%
    09:00 +2°C° 0.6 mm 1 mps 687 mmHg 95%
    10:00 +2°C° 0.6 mm 1 mps 687 mmHg 96%
    11:00 +2°C° 0 mm 1 mps 688 mmHg 97%
    12:00 +1°C° 0.9 mm 2 mps 688 mmHg 97%
    13:00 +1°C° 0.9 mm 2 mps 688 mmHg 98%
    14:00 +1°C° 0.9 mm 2 mps 688 mmHg 98%
    15:00 -1°C° 0.6 mm 2 mps 689 mmHg 97%
    16:00 -2°C° 0.6 mm 3 mps 690 mmHg 97%
    17:00 -2°C° 0 mm 2 mps 690 mmHg 97%
    18:00 -2°C° 0.4 mm 2 mps 691 mmHg 97%
    19:00 -3°C° 0.4 mm 2 mps 692 mmHg 97%
    20:00 -3°C° 0.4 mm 2 mps 692 mmHg 97%
    21:00 -3°C° 0.6 mm 2 mps 693 mmHg 98%
    22:00 -3°C° 0.6 mm 2 mps 693 mmHg 98%
    23:00 -2°C° 0.6 mm 1 mps 693 mmHg 98%

    Tomorrow, 15 December, Sunday

    Time Temperature Precipitation Wind Pressure Humidity
    00:00 -2°C° 0.5 mm 1 mps 694 mmHg 98%
    01:00 -2°C° 0.5 mm 1 mps 694 mmHg 97%
    02:00 -2°C° 0.5 mm 1 mps 694 mmHg 97%
    03:00 -2°C° 0.3 mm 1 mps 694 mmHg 97%
    04:00 -3°C° 0.3 mm 0 mps 695 mmHg 97%
    05:00 -4°C° 0.3 mm 0 mps 695 mmHg 96%
    06:00 -4°C° 0.2 mm 0 mps 695 mmHg 96%
    07:00 -3°C° 0.2 mm 1 mps 695 mmHg 95%
    08:00 -2°C° 0.2 mm 1 mps 696 mmHg 95%
    09:00 -2°C° 0 mm 1 mps 696 mmHg 94%
    10:00 -1°C° 0 mm 1 mps 695 mmHg 94%
    11:00 -1°C° 0 mm 1 mps 695 mmHg 93%
    12:00 -1°C° 0.1 mm 1 mps 695 mmHg 93%
    13:00 -1°C° 0.1 mm 1 mps 695 mmHg 93%
    14:00 0°C° 0.1 mm 1 mps 695 mmHg 92%
    15:00 -2°C° 0 mm 1 mps 695 mmHg 92%
    16:00 -3°C° 0 mm 1 mps 695 mmHg 92%
    17:00 -5°C° 0 mm 0 mps 695 mmHg 91%
    18:00 -4°C° 0 mm 1 mps 696 mmHg 88%
    19:00 -4°C° 0 mm 1 mps 696 mmHg 84%
    20:00 -4°C° 0 mm 1 mps 696 mmHg 81%
    21:00 -4°C° 0 mm 1 mps 696 mmHg 78%
    22:00 -4°C° 0 mm 1 mps 696 mmHg 76%
    23:00 -6°C° 0 mm 1 mps 696 mmHg 73%

    Day after tomorrow, 16 December, Monday

    Time Temperature Precipitation Wind Pressure Humidity
    00:00 -4°C° 0 mm 1 mps 696 mmHg 71%
    01:00 -4°C° 0 mm 1 mps 696 mmHg 69%
    02:00 -4°C° 0 mm 1 mps 696 mmHg 67%
    03:00 -4°C° 0 mm 1 mps 696 mmHg 66%
    04:00 -4°C° 0 mm 1 mps 696 mmHg 65%
    05:00 -4°C° 0 mm 1 mps 696 mmHg 64%
    06:00 -4°C° 0 mm 1 mps 697 mmHg 64%
    07:00 -6°C° 0 mm 2 mps 697 mmHg 65%
    08:00 -6°C° 0 mm 2 mps 697 mmHg 65%
    09:00 -4°C° 0 mm 2 mps 697 mmHg 68%
    10:00 -3°C° 0 mm 2 mps 696 mmHg 71%
    11:00 -2°C° 0 mm 2 mps 696 mmHg 74%
    12:00 -2°C° 0 mm 2 mps 696 mmHg 76%
    13:00 +1°C° 0 mm 1 mps 696 mmHg 78%
    14:00 +1°C° 0 mm 1 mps 695 mmHg 80%
    15:00 0°C° 0 mm 1 mps 695 mmHg 76%
    16:00 -2°C° 0 mm 1 mps 695 mmHg 72%
    17:00 -3°C° 0 mm 1 mps 695 mmHg 67%
    18:00 -3°C° 0 mm 1 mps 696 mmHg 65%
    19:00 -3°C° 0 mm 1 mps 696 mmHg 63%
    20:00 -3°C° 0 mm 1 mps 696 mmHg 61%
    21:00 -3°C° 0 mm 1 mps 695 mmHg 60%
    22:00 -3°C° 0 mm 1 mps 695 mmHg 59%
    23:00 -4°C° 0 mm 1 mps 695 mmHg 59%

    17 December, Tuesday

    Time Temperature Precipitation Wind Pressure Humidity
    00:00 -4°C° 0 mm 1 mps 695 mmHg 58%
    01:00 -4°C° 0 mm 1 mps 695 mmHg 58%
    02:00 -4°C° 0 mm 1 mps 695 mmHg 57%
    03:00 -4°C° 0 mm 1 mps 695 mmHg 57%
    04:00 -4°C° 0 mm 1 mps 695 mmHg 57%
    05:00 -4°C° 0 mm 1 mps 695 mmHg 56%
    06:00 -3°C° 0 mm 1 mps 695 mmHg 56%
    07:00 -3°C° 0 mm 1 mps 695 mmHg 57%
    08:00 -3°C° 0 mm 1 mps 695 mmHg 57%
    09:00 -2°C° 0 mm 1 mps 695 mmHg 60%
    10:00 0°C° 0 mm 1 mps 695 mmHg 64%
    11:00 +1°C° 0 mm 1 mps 695 mmHg 68%
    12:00 +1°C° 0 mm 1 mps 695 mmHg 70%
    13:00 +1°C° 0 mm 1 mps 694 mmHg 72%
    14:00 0°C° 0 mm 0 mps 694 mmHg 74%
    15:00 0°C° 0 mm 1 mps 694 mmHg 67%
    16:00 -1°C° 0 mm 1 mps 694 mmHg 61%
    17:00 -2°C° 0 mm 1 mps 694 mmHg 55%
    18:00 -2°C° 0 mm 1 mps 694 mmHg 54%
    19:00 -2°C° 0 mm 1 mps 694 mmHg 53%
    20:00 -2°C° 0 mm 1 mps 694 mmHg 52%
    21:00 -2°C° 0 mm 1 mps 694 mmHg 51%
    22:00 -2°C° 0 mm 1 mps 693 mmHg 50%
    23:00 -2°C° 0 mm 1 mps 693 mmHg 50%

    18 December, Wednesday

    Time Temperature Precipitation Wind Pressure Humidity
    00:00 -2°C° 0 mm 1 mps 693 mmHg 49%
    01:00 -4°C° 0 mm 2 mps 693 mmHg 48%
    02:00 -4°C° 0 mm 2 mps 693 mmHg 47%
    03:00 -4°C° 0 mm 2 mps 692 mmHg 46%
    04:00 -4°C° 0 mm 2 mps 692 mmHg 45%
    05:00 -4°C° 0 mm 2 mps 692 mmHg 44%
    06:00 -3°C° 0 mm 2 mps 692 mmHg 45%
    07:00 -3°C° 0 mm 2 mps 692 mmHg 45%
    08:00 -3°C° 0 mm 2 mps 692 mmHg 46%
    09:00 0°C° 0 mm 1 mps 692 mmHg 52%
    10:00 +2°C° 0 mm 1 mps 691 mmHg 58%
    11:00 +3°C° 0 mm 1 mps 691 mmHg 64%
    12:00 +3°C° 0 mm 1 mps 691 mmHg 65%
    13:00 +4°C° 0 mm 1 mps 690 mmHg 66%
    14:00 +4°C° 0 mm 1 mps 690 mmHg 68%
    15:00 +3°C° 0 mm 1 mps 690 mmHg 62%
    16:00 +2°C° 0 mm 2 mps 690 mmHg 57%
    17:00 +1°C° 0 mm 2 mps 690 mmHg 52%
    18:00 +1°C° 0 mm 2 mps 691 mmHg 57%
    19:00 -1°C° 0 mm 3 mps 691 mmHg 62%
    20:00 -1°C° 0 mm 3 mps 691 mmHg 68%
    21:00 -1°C° 0.5 mm 3 mps 692 mmHg 76%
    22:00 -1°C° 0.5 mm 2 mps 692 mmHg 85%
    23:00 -1°C° 0.5 mm 2 mps 693 mmHg 94%

    19 December, Thursday

    Time Temperature Precipitation Wind Pressure Humidity
    00:00 -1°C° 0.1 mm 2 mps 693 mmHg 91%
    01:00 -1°C° 0.1 mm 2 mps 693 mmHg 89%
    02:00 -1°C° 0.1 mm 2 mps 693 mmHg 86%
    03:00 -1°C° 0.1 mm 2 mps 694 mmHg 87%
    04:00 -1°C° 0.1 mm 2 mps 694 mmHg 88%
    05:00 -1°C° 0.1 mm 2 mps 694 mmHg 90%
    06:00 -1°C° 0 mm 2 mps 694 mmHg 87%
    07:00 -1°C° 0 mm 2 mps 694 mmHg 84%
    08:00 -1°C° 0 mm 2 mps 694 mmHg 81%
    09:00 +1°C° 0 mm 2 mps 694 mmHg 81%
    10:00 +1°C° 0 mm 2 mps 694 mmHg 81%
    11:00 +2°C° 0 mm 2 mps 693 mmHg 81%
    12:00 +2°C° 0 mm 2 mps 693 mmHg 83%
    13:00 +2°C° 0 mm 2 mps 692 mmHg 86%
    14:00 +3°C° 0 mm 1 mps 692 mmHg 88%
    15:00 +2°C° 0 mm 1 mps 692 mmHg 87%
    16:00 +1°C° 0 mm 1 mps 692 mmHg 85%
    17:00 +1°C° 0 mm 1 mps 692 mmHg 84%
    18:00 +1°C° 0 mm 1 mps 692 mmHg 82%
    19:00 +1°C° 0 mm 1 mps 692 mmHg 81%
    20:00 +1°C° 0 mm 1 mps 693 mmHg 79%
    21:00 +1°C° 0 mm 1 mps 693 mmHg 80%
    22:00 -1°C° 0 mm 2 mps 692 mmHg 82%
    23:00 -1°C° 0 mm 2 mps 692 mmHg 83%
    Show more